JBU1527 KEWR-KMCO

Flight info

Callsign JBU1527
Flight time 2h 8m
Altitude 34000
Route ELVAE NECCK WHITE Q409 CRPLR Q85 LPERD GTOUT1
Aircraft A320/M-SADE3GHIJJ3J4M3P2RWXZ/LB1D1

Departure

Time 2026-05-06 17:33
Airport Newark Liberty International Airport (KEWR)

Arrival

Time 2026-05-06 19:41
Airport Orlando International Airport (KMCO)
Time Latitude Longitude Altitude Speed Heading
2026-05-06 17:00 40.68701 -74.18690 32 ft 0 kts 271°
2026-05-06 17:20 40.68701 -74.18686 22 ft 3 kts 271°
2026-05-06 17:20 40.68700 -74.18652 22 ft 4 kts 271°
2026-05-06 17:20 40.68700 -74.18623 22 ft 4 kts 269°
2026-05-06 17:21 40.68705 -74.18596 22 ft 4 kts 204°
2026-05-06 17:21 40.68728 -74.18593 23 ft 4 kts 177°
2026-05-06 17:21 40.68735 -74.18593 25 ft 0 kts 177°
2026-05-06 17:23 40.68733 -74.18593 22 ft 3 kts 177°
2026-05-06 17:24 40.68690 -74.18591 22 ft 7 kts 177°
2026-05-06 17:24 40.68616 -74.18586 22 ft 14 kts 177°
2026-05-06 17:24 40.68532 -74.18540 22 ft 13 kts 130°
2026-05-06 17:24 40.68511 -74.18433 22 ft 11 kts 94°
2026-05-06 17:25 40.68509 -74.18395 22 ft 0 kts 95°
2026-05-06 17:26 40.68508 -74.18382 22 ft 8 kts 95°
2026-05-06 17:26 40.68498 -74.18234 22 ft 19 kts 95°
2026-05-06 17:27 40.68445 -74.18097 22 ft 16 kts 122°
2026-05-06 17:27 40.68392 -74.17967 22 ft 16 kts 116°
2026-05-06 17:27 40.68343 -74.17832 22 ft 17 kts 115°
2026-05-06 17:27 40.68296 -74.17701 22 ft 15 kts 115°
2026-05-06 17:28 40.68338 -74.17598 22 ft 17 kts 28°
2026-05-06 17:28 40.68462 -74.17518 23 ft 21 kts 26°
2026-05-06 17:28 40.68591 -74.17435 23 ft 20 kts 26°
2026-05-06 17:28 40.68717 -74.17354 23 ft 20 kts 26°
2026-05-06 17:29 40.68843 -74.17276 24 ft 20 kts 26°
2026-05-06 17:29 40.68969 -74.17196 22 ft 20 kts 26°
2026-05-06 17:29 40.69095 -74.17115 21 ft 20 kts 26°
2026-05-06 17:29 40.69218 -74.17037 22 ft 20 kts 26°
2026-05-06 17:30 40.69341 -74.16958 22 ft 19 kts 26°
2026-05-06 17:30 40.69461 -74.16883 22 ft 19 kts 25°
2026-05-06 17:30 40.69581 -74.16807 23 ft 19 kts 25°
2026-05-06 17:30 40.69701 -74.16730 22 ft 19 kts 26°
2026-05-06 17:31 40.69823 -74.16651 21 ft 20 kts 26°
2026-05-06 17:31 40.69944 -74.16575 21 ft 18 kts 25°
2026-05-06 17:31 40.70048 -74.16507 21 ft 12 kts 38°
2026-05-06 17:31 40.70056 -74.16402 22 ft 13 kts 119°
2026-05-06 17:32 40.69974 -74.16398 20 ft 13 kts 203°
2026-05-06 17:32 40.69827 -74.16490 20 ft 49 kts 206°
2026-05-06 17:32 40.69332 -74.16805 24 ft 106 kts 205°
2026-05-06 17:32 40.68527 -74.17315 32 ft 149 kts 205°
2026-05-06 17:33 40.67602 -74.17870 634 ft 144 kts 199°
2026-05-06 17:33 40.66581 -74.17890 1173 ft 156 kts 175°
2026-05-06 17:33 40.65453 -74.17582 1398 ft 174 kts 185°
2026-05-06 17:33 40.64312 -74.18153 1649 ft 189 kts 216°
2026-05-06 17:34 40.63170 -74.19215 1943 ft 212 kts 217°
2026-05-06 17:34 40.61916 -74.20414 2405 ft 232 kts 216°
2026-05-06 17:34 40.60617 -74.21687 3271 ft 232 kts 217°
2026-05-06 17:34 40.59319 -74.22974 4161 ft 235 kts 217°
2026-05-06 17:35 40.58005 -74.24268 5056 ft 236 kts 217°
2026-05-06 17:35 40.56686 -74.25571 5908 ft 239 kts 217°
2026-05-06 17:35 40.55247 -74.26642 6780 ft 240 kts 201°
2026-05-06 17:36 40.51841 -74.26338 8331 ft 264 kts 168°
2026-05-06 17:36 40.50132 -74.25455 9189 ft 263 kts 168°
2026-05-06 17:36 40.48407 -74.24564 9849 ft 270 kts 168°
2026-05-06 17:36 40.46624 -74.23670 10274 ft 283 kts 168°
2026-05-06 17:37 40.44707 -74.22735 10432 ft 305 kts 168°
2026-05-06 17:37 40.42646 -74.21732 10595 ft 325 kts 167°
2026-05-06 17:37 40.40499 -74.20671 11092 ft 334 kts 167°
2026-05-06 17:37 40.38311 -74.19577 11687 ft 339 kts 167°
2026-05-06 17:38 40.36091 -74.18468 12270 ft 344 kts 167°
2026-05-06 17:38 40.33836 -74.17380 12844 ft 346 kts 171°
2026-05-06 17:38 40.31493 -74.16750 13423 ft 342 kts 182°
2026-05-06 17:38 40.29133 -74.16739 13951 ft 338 kts 192°
2026-05-06 17:39 40.26829 -74.17297 14489 ft 337 kts 199°
2026-05-06 17:39 40.24541 -74.17995 15015 ft 339 kts 199°
2026-05-06 17:39 40.22195 -74.18703 15531 ft 343 kts 199°
2026-05-06 17:39 40.19883 -74.19395 16041 ft 347 kts 199°
2026-05-06 17:40 40.17491 -74.20110 16578 ft 350 kts 199°
2026-05-06 17:40 40.15108 -74.20821 17107 ft 353 kts 200°
2026-05-06 17:40 40.12699 -74.21543 17646 ft 357 kts 200°
2026-05-06 17:40 40.10266 -74.22272 18186 ft 360 kts 200°
2026-05-06 17:41 40.07813 -74.23005 18687 ft 363 kts 200°
2026-05-06 17:41 40.05342 -74.23739 19204 ft 366 kts 200°
2026-05-06 17:41 40.02857 -74.24488 19681 ft 368 kts 202°
2026-05-06 17:41 40.00477 -74.25633 20187 ft 362 kts 213°
2026-05-06 17:42 39.98345 -74.27334 20718 ft 358 kts 221°
2026-05-06 17:42 39.96333 -74.29261 21233 ft 359 kts 222°
2026-05-06 17:42 39.94311 -74.31197 21731 ft 361 kts 222°
2026-05-06 17:42 39.92280 -74.33138 22217 ft 363 kts 222°
2026-05-06 17:43 39.90240 -74.35083 22692 ft 365 kts 222°
2026-05-06 17:43 39.88183 -74.37039 23190 ft 367 kts 222°
2026-05-06 17:43 39.86116 -74.38997 23626 ft 368 kts 222°
2026-05-06 17:43 39.84040 -74.40966 23949 ft 370 kts 222°
2026-05-06 17:44 39.81968 -74.42978 24283 ft 371 kts 226°
2026-05-06 17:44 39.80119 -74.45285 24639 ft 369 kts 231°
2026-05-06 17:44 39.78318 -74.47681 24990 ft 371 kts 231°
2026-05-06 17:44 39.76517 -74.50085 25339 ft 372 kts 231°
2026-05-06 17:45 39.74707 -74.52498 25689 ft 374 kts 231°
2026-05-06 17:45 39.72884 -74.54923 26035 ft 376 kts 232°
2026-05-06 17:45 39.71054 -74.57351 26372 ft 378 kts 232°
2026-05-06 17:45 39.69203 -74.59798 26707 ft 380 kts 232°
2026-05-06 17:46 39.67349 -74.62245 27036 ft 382 kts 232°
2026-05-06 17:46 39.65481 -74.64707 27378 ft 384 kts 232°
2026-05-06 17:46 39.64213 -74.66378 27616 ft 385 kts 232°
2026-05-06 17:46 39.62332 -74.68857 27954 ft 387 kts 232°
2026-05-06 17:47 39.60440 -74.71351 28290 ft 389 kts 233°
2026-05-06 17:47 39.58540 -74.73853 28633 ft 389 kts 233°
2026-05-06 17:47 39.56639 -74.76349 29114 ft 388 kts 233°
2026-05-06 17:47 39.54750 -74.78826 29597 ft 386 kts 233°
2026-05-06 17:48 39.52864 -74.81299 30054 ft 385 kts 233°
2026-05-06 17:48 39.50988 -74.83762 30451 ft 383 kts 234°
2026-05-06 17:48 39.49118 -74.86217 30855 ft 382 kts 234°
2026-05-06 17:48 39.47255 -74.88658 31236 ft 380 kts 234°
2026-05-06 17:49 39.45402 -74.91086 31604 ft 379 kts 234°
2026-05-06 17:49 39.43549 -74.93509 32009 ft 378 kts 234°
2026-05-06 17:49 39.41704 -74.95919 32432 ft 376 kts 235°
2026-05-06 17:49 39.39866 -74.98318 32872 ft 374 kts 235°
2026-05-06 17:50 39.38044 -75.00695 33313 ft 372 kts 236°
2026-05-06 17:50 39.36227 -75.03068 33750 ft 370 kts 236°
2026-05-06 17:50 39.34418 -75.05432 33905 ft 371 kts 236°
2026-05-06 17:50 39.32596 -75.07817 33924 ft 375 kts 236°
2026-05-06 17:51 39.28892 -75.12592 33874 ft 378 kts 234°
2026-05-06 17:51 39.24997 -75.17183 33915 ft 380 kts 232°
2026-05-06 17:52 39.21027 -75.21716 33909 ft 380 kts 232°
2026-05-06 17:52 39.17089 -75.26269 33897 ft 380 kts 233°
2026-05-06 17:53 39.13170 -75.30836 33896 ft 380 kts 233°
2026-05-06 17:53 39.09257 -75.35405 33875 ft 380 kts 233°
2026-05-06 17:54 39.05336 -75.39969 33880 ft 380 kts 232°
2026-05-06 17:54 39.03212 -75.42074 33881 ft 393 kts 223°
2026-05-06 17:54 39.00722 -75.43679 33892 ft 410 kts 213°
2026-05-06 17:55 38.97904 -75.44648 33901 ft 429 kts 201°
2026-05-06 17:55 38.94906 -75.45078 33907 ft 435 kts 199°
2026-05-06 17:55 38.88896 -75.45885 33903 ft 434 kts 199°
2026-05-06 17:56 38.82891 -75.46717 33909 ft 435 kts 199°
2026-05-06 17:56 38.76861 -75.47561 33917 ft 436 kts 199°
2026-05-06 17:57 38.70783 -75.48403 33926 ft 437 kts 199°
2026-05-06 17:57 38.64723 -75.49227 33913 ft 438 kts 199°
2026-05-06 17:58 38.58654 -75.50051 33927 ft 439 kts 199°
2026-05-06 17:58 38.52578 -75.50868 33942 ft 439 kts 199°
2026-05-06 17:59 38.46499 -75.51690 33954 ft 439 kts 199°
2026-05-06 17:59 38.40423 -75.52515 33937 ft 439 kts 198°
2026-05-06 18:00 38.34542 -75.53926 33951 ft 418 kts 211°
2026-05-06 18:00 38.31909 -75.55344 33956 ft 405 kts 219°
2026-05-06 18:00 38.29533 -75.57183 33959 ft 394 kts 226°
2026-05-06 18:01 38.25021 -75.61163 33964 ft 395 kts 225°
2026-05-06 18:01 38.20481 -75.65108 33919 ft 396 kts 225°
2026-05-06 18:02 38.15906 -75.69062 33920 ft 398 kts 225°
2026-05-06 18:02 38.11321 -75.73035 33927 ft 400 kts 225°
2026-05-06 18:03 38.06729 -75.77022 33934 ft 400 kts 225°
2026-05-06 18:03 38.02127 -75.81005 33925 ft 400 kts 223°
2026-05-06 18:04 37.97521 -75.84970 33929 ft 400 kts 223°
2026-05-06 18:04 37.92910 -75.88941 33939 ft 401 kts 223°
2026-05-06 18:05 37.88279 -75.92940 33946 ft 401 kts 223°
2026-05-06 18:05 37.83672 -75.96915 33958 ft 401 kts 223°
2026-05-06 18:06 37.79050 -76.00884 33935 ft 402 kts 222°
2026-05-06 18:06 37.74406 -76.04858 33934 ft 404 kts 222°
2026-05-06 18:07 37.69739 -76.08849 33935 ft 406 kts 222°
2026-05-06 18:07 37.65056 -76.12850 33933 ft 407 kts 222°
2026-05-06 18:08 37.60358 -76.16850 33938 ft 408 kts 221°
2026-05-06 18:08 37.55524 -76.20658 33944 ft 411 kts 219°
2026-05-06 18:09 37.50590 -76.24321 33946 ft 412 kts 219°
2026-05-06 18:09 37.45654 -76.27992 33954 ft 411 kts 219°
2026-05-06 18:10 37.40750 -76.31702 33954 ft 411 kts 219°
2026-05-06 18:10 37.35848 -76.35420 33940 ft 412 kts 219°
2026-05-06 18:11 37.30930 -76.39139 33937 ft 413 kts 219°
2026-05-06 18:11 37.25992 -76.42857 33951 ft 414 kts 219°
2026-05-06 18:12 37.21055 -76.46572 33954 ft 414 kts 219°
2026-05-06 18:12 37.16104 -76.50291 33932 ft 415 kts 219°
2026-05-06 18:13 37.11151 -76.53998 33980 ft 414 kts 219°
2026-05-06 18:13 37.06212 -76.57696 33977 ft 413 kts 219°
2026-05-06 18:14 37.01248 -76.61409 33979 ft 413 kts 219°
2026-05-06 18:14 36.96322 -76.65084 33981 ft 412 kts 219°
2026-05-06 18:15 36.91391 -76.68754 33956 ft 412 kts 219°
2026-05-06 18:15 36.86471 -76.72427 33993 ft 412 kts 219°
2026-05-06 18:16 36.81545 -76.76092 34004 ft 412 kts 219°
2026-05-06 18:16 36.76610 -76.79752 34008 ft 412 kts 219°
2026-05-06 18:17 36.71676 -76.83402 33985 ft 412 kts 220°
2026-05-06 18:17 36.66738 -76.87056 34004 ft 413 kts 219°
2026-05-06 18:18 36.61803 -76.90704 34010 ft 412 kts 219°
2026-05-06 18:18 36.57715 -76.93726 34014 ft 411 kts 220°
2026-05-06 18:19 36.52787 -76.97360 34011 ft 411 kts 219°
2026-05-06 18:19 36.47822 -77.00995 33985 ft 412 kts 219°
2026-05-06 18:20 36.42891 -77.04616 33994 ft 412 kts 219°
2026-05-06 18:20 36.37975 -77.08222 34007 ft 413 kts 219°
2026-05-06 18:21 36.32999 -77.11871 34012 ft 413 kts 219°
2026-05-06 18:21 36.28051 -77.15501 33996 ft 414 kts 219°
2026-05-06 18:22 36.23084 -77.19125 33994 ft 415 kts 219°
2026-05-06 18:22 36.18101 -77.22751 33997 ft 416 kts 219°
2026-05-06 18:23 36.13111 -77.26383 34000 ft 416 kts 219°
2026-05-06 18:23 36.08117 -77.30012 34003 ft 417 kts 219°
2026-05-06 18:24 36.03269 -77.33857 33986 ft 408 kts 227°
2026-05-06 18:24 35.98798 -77.38206 34003 ft 410 kts 227°
2026-05-06 18:25 35.94299 -77.42553 34005 ft 411 kts 227°
2026-05-06 18:25 35.89794 -77.46906 34008 ft 411 kts 227°
2026-05-06 18:26 35.85284 -77.51254 34017 ft 412 kts 227°
2026-05-06 18:26 35.80766 -77.55603 34001 ft 412 kts 227°
2026-05-06 18:27 35.76244 -77.59949 34002 ft 413 kts 227°
2026-05-06 18:27 35.71715 -77.64297 34021 ft 413 kts 227°
2026-05-06 18:28 35.67187 -77.68638 34032 ft 413 kts 227°
2026-05-06 18:28 35.62653 -77.72963 34037 ft 413 kts 227°
2026-05-06 18:29 35.58084 -77.77329 34022 ft 413 kts 227°
2026-05-06 18:29 35.53548 -77.81678 34023 ft 414 kts 227°
2026-05-06 18:30 35.48997 -77.86027 34027 ft 415 kts 227°
2026-05-06 18:30 35.44427 -77.90357 34031 ft 415 kts 227°
2026-05-06 18:31 35.39855 -77.94684 34034 ft 415 kts 227°
2026-05-06 18:31 35.35293 -77.99012 34043 ft 414 kts 226°
2026-05-06 18:32 35.30749 -78.03326 34050 ft 413 kts 226°
2026-05-06 18:32 35.26208 -78.07626 34051 ft 413 kts 226°
2026-05-06 18:33 35.21664 -78.11922 34048 ft 412 kts 226°
2026-05-06 18:33 35.17123 -78.16196 34025 ft 412 kts 226°
2026-05-06 18:34 35.12575 -78.20476 34028 ft 413 kts 226°
2026-05-06 18:34 35.08019 -78.24761 34035 ft 414 kts 226°
2026-05-06 18:35 35.03452 -78.29057 34045 ft 415 kts 226°
2026-05-06 18:35 34.98875 -78.33352 34050 ft 415 kts 226°
2026-05-06 18:36 34.94292 -78.37648 34056 ft 415 kts 226°
2026-05-06 18:36 34.89692 -78.41939 34028 ft 417 kts 226°
2026-05-06 18:37 34.85075 -78.46246 34023 ft 419 kts 226°
2026-05-06 18:37 34.80447 -78.50575 34018 ft 420 kts 226°
2026-05-06 18:38 34.75777 -78.54936 34029 ft 421 kts 226°
2026-05-06 18:38 34.71127 -78.59258 34040 ft 421 kts 226°
2026-05-06 18:39 34.66466 -78.63584 34025 ft 422 kts 226°
2026-05-06 18:40 34.59439 -78.70088 34032 ft 424 kts 226°
2026-05-06 18:40 34.54738 -78.74433 34045 ft 425 kts 226°
2026-05-06 18:41 34.50041 -78.78772 34052 ft 425 kts 226°
2026-05-06 18:41 34.45338 -78.83107 34039 ft 425 kts 226°
2026-05-06 18:42 34.40565 -78.87365 34036 ft 428 kts 224°
2026-05-06 18:42 34.35651 -78.91461 34036 ft 429 kts 223°
2026-05-06 18:43 34.30717 -78.95530 34035 ft 429 kts 223°
2026-05-06 18:43 34.25812 -78.99637 34049 ft 429 kts 224°
2026-05-06 18:44 34.20913 -79.03760 34025 ft 429 kts 224°
2026-05-06 18:44 34.16009 -79.07883 34034 ft 430 kts 223°
2026-05-06 18:45 34.11095 -79.12002 34039 ft 430 kts 223°
2026-05-06 18:45 34.06177 -79.16126 34049 ft 430 kts 223°
2026-05-06 18:46 34.01224 -79.20265 34058 ft 431 kts 223°
2026-05-06 18:46 33.96291 -79.24380 34042 ft 431 kts 223°
2026-05-06 18:47 33.91355 -79.28496 34050 ft 432 kts 223°
2026-05-06 18:47 33.86411 -79.32614 34053 ft 432 kts 223°
2026-05-06 18:48 33.81459 -79.36730 34054 ft 433 kts 223°
2026-05-06 18:48 33.76500 -79.40848 34059 ft 433 kts 223°
2026-05-06 18:49 33.71540 -79.44963 34042 ft 434 kts 223°
2026-05-06 18:49 33.66567 -79.49085 34046 ft 435 kts 223°
2026-05-06 18:50 33.61582 -79.53215 34053 ft 435 kts 223°
2026-05-06 18:50 33.56586 -79.57332 34060 ft 436 kts 223°
2026-05-06 18:51 33.51593 -79.61450 34044 ft 436 kts 223°
2026-05-06 18:51 33.46592 -79.65566 34049 ft 437 kts 224°
2026-05-06 18:52 33.41574 -79.69691 34051 ft 438 kts 224°
2026-05-06 18:52 33.36548 -79.73810 34050 ft 438 kts 224°
2026-05-06 18:53 33.32329 -79.77264 34060 ft 438 kts 224°
2026-05-06 18:53 33.27296 -79.81387 34057 ft 438 kts 223°
2026-05-06 18:54 33.22294 -79.85480 34060 ft 438 kts 224°
2026-05-06 18:54 33.17228 -79.89616 34077 ft 438 kts 224°
2026-05-06 18:55 33.12201 -79.93723 34082 ft 438 kts 224°
2026-05-06 18:55 33.07164 -79.97817 34084 ft 438 kts 224°
2026-05-06 18:56 33.02127 -80.01904 34100 ft 438 kts 224°
2026-05-06 18:56 32.97093 -80.05998 34103 ft 438 kts 224°
2026-05-06 18:57 32.92057 -80.10084 34104 ft 438 kts 224°
2026-05-06 18:57 32.87012 -80.14158 34104 ft 438 kts 224°
2026-05-06 18:58 32.81971 -80.18226 34097 ft 438 kts 224°
2026-05-06 18:58 32.76936 -80.22293 34077 ft 437 kts 224°
2026-05-06 18:59 32.71906 -80.26344 34100 ft 436 kts 224°
2026-05-06 18:59 32.66880 -80.30383 34108 ft 436 kts 224°
2026-05-06 19:00 32.61864 -80.34411 34106 ft 435 kts 224°
2026-05-06 19:00 32.56836 -80.38406 34107 ft 437 kts 223°
2026-05-06 19:01 32.51576 -80.42088 34080 ft 441 kts 220°
2026-05-06 19:01 32.46190 -80.45588 34090 ft 442 kts 219°
2026-05-06 19:02 32.40819 -80.49121 34093 ft 441 kts 220°
2026-05-06 19:02 32.35484 -80.52708 34099 ft 441 kts 220°
2026-05-06 19:03 32.30165 -80.56303 34098 ft 440 kts 220°
2026-05-06 19:03 32.24817 -80.59907 34080 ft 440 kts 221°
2026-05-06 19:04 32.19494 -80.63483 34111 ft 440 kts 220°
2026-05-06 19:04 32.14166 -80.67035 34115 ft 440 kts 220°
2026-05-06 19:05 32.08827 -80.70608 34111 ft 440 kts 221°
2026-05-06 19:05 32.03502 -80.74179 34105 ft 440 kts 220°
2026-05-06 19:06 31.98167 -80.77731 34079 ft 441 kts 220°
2026-05-06 19:06 31.92832 -80.81282 34058 ft 441 kts 220°
2026-05-06 19:07 31.87489 -80.84841 34066 ft 441 kts 220°
2026-05-06 19:07 31.82142 -80.88390 34074 ft 441 kts 220°
2026-05-06 19:08 31.76797 -80.91933 34055 ft 441 kts 220°
2026-05-06 19:08 31.71448 -80.95481 34057 ft 441 kts 219°
2026-05-06 19:09 31.66099 -80.99022 34073 ft 442 kts 219°
2026-05-06 19:09 31.60743 -81.02556 34075 ft 442 kts 219°
2026-05-06 19:10 31.55321 -81.06072 34084 ft 443 kts 218°
2026-05-06 19:10 31.49836 -81.09413 34087 ft 445 kts 217°
2026-05-06 19:11 31.44325 -81.12720 34064 ft 445 kts 217°
2026-05-06 19:11 31.38831 -81.16065 34073 ft 445 kts 217°
2026-05-06 19:12 31.33323 -81.19400 34083 ft 446 kts 217°
2026-05-06 19:12 31.27789 -81.22682 34085 ft 447 kts 216°
2026-05-06 19:13 31.22238 -81.25950 34060 ft 448 kts 215°
2026-05-06 19:13 31.19304 -81.27299 34060 ft 460 kts 205°
2026-05-06 19:13 31.16137 -81.28091 34064 ft 472 kts 195°
2026-05-06 19:14 31.09457 -81.28261 34059 ft 482 kts 188°
2026-05-06 19:14 31.02743 -81.28228 34078 ft 483 kts 188°
2026-05-06 19:15 30.96016 -81.28201 34087 ft 483 kts 188°
2026-05-06 19:15 30.89294 -81.28191 34077 ft 484 kts 188°
2026-05-06 19:16 30.82557 -81.28179 34085 ft 484 kts 188°
2026-05-06 19:16 30.75821 -81.28154 34093 ft 484 kts 188°
2026-05-06 19:17 30.69084 -81.28142 34103 ft 484 kts 188°
2026-05-06 19:17 30.62345 -81.28126 34089 ft 484 kts 188°
2026-05-06 19:18 30.55540 -81.27947 34098 ft 488 kts 185°
2026-05-06 19:18 30.48748 -81.27389 34102 ft 490 kts 183°
2026-05-06 19:19 30.41945 -81.26741 34109 ft 490 kts 184°
2026-05-06 19:19 30.35146 -81.26188 34109 ft 489 kts 185°
2026-05-06 19:20 30.28344 -81.25702 34014 ft 495 kts 185°
2026-05-06 19:20 30.24877 -81.25462 33054 ft 504 kts 184°
2026-05-06 19:20 30.21361 -81.25213 32243 ft 503 kts 184°
2026-05-06 19:20 30.17905 -81.24947 31829 ft 494 kts 184°
2026-05-06 19:21 30.14475 -81.24682 31132 ft 493 kts 184°
2026-05-06 19:21 30.11063 -81.24420 30521 ft 489 kts 184°
2026-05-06 19:21 30.07674 -81.24165 29857 ft 486 kts 183°
2026-05-06 19:21 30.04313 -81.23913 29226 ft 481 kts 183°
2026-05-06 19:22 30.00990 -81.23663 28618 ft 477 kts 183°
2026-05-06 19:22 29.97695 -81.23418 28011 ft 472 kts 183°
2026-05-06 19:22 29.94432 -81.23176 27411 ft 468 kts 183°
2026-05-06 19:22 29.91199 -81.22939 26816 ft 464 kts 182°
2026-05-06 19:23 29.87985 -81.22701 26243 ft 460 kts 182°
2026-05-06 19:23 29.84804 -81.22469 25660 ft 457 kts 182°
2026-05-06 19:23 29.81642 -81.22237 25079 ft 453 kts 182°
2026-05-06 19:23 29.78512 -81.22004 24563 ft 449 kts 181°
2026-05-06 19:24 29.75406 -81.21770 24029 ft 446 kts 181°
2026-05-06 19:24 29.72326 -81.21539 23544 ft 441 kts 181°
2026-05-06 19:24 29.69275 -81.21312 23051 ft 436 kts 181°
2026-05-06 19:24 29.66262 -81.21070 22589 ft 432 kts 181°
2026-05-06 19:25 29.63282 -81.20815 22126 ft 428 kts 180°
2026-05-06 19:25 29.60318 -81.20551 21648 ft 426 kts 180°
2026-05-06 19:25 29.57377 -81.20288 21174 ft 424 kts 180°
2026-05-06 19:25 29.54439 -81.20027 20682 ft 422 kts 180°
2026-05-06 19:26 29.52462 -81.19853 20339 ft 421 kts 180°
2026-05-06 19:26 29.49553 -81.19598 19860 ft 419 kts 180°
2026-05-06 19:26 29.46651 -81.19348 19343 ft 418 kts 180°
2026-05-06 19:26 29.43756 -81.19103 18822 ft 416 kts 180°
2026-05-06 19:27 29.40868 -81.18861 18284 ft 416 kts 179°
2026-05-06 19:27 29.37993 -81.18619 17724 ft 413 kts 179°
2026-05-06 19:27 29.35129 -81.18376 17205 ft 409 kts 179°
2026-05-06 19:27 29.32293 -81.18136 16624 ft 407 kts 179°
2026-05-06 19:28 29.29494 -81.17899 16102 ft 404 kts 178°
2026-05-06 19:28 29.26721 -81.17658 15865 ft 392 kts 178°
2026-05-06 19:28 29.24045 -81.17420 15583 ft 383 kts 178°
2026-05-06 19:28 29.21406 -81.17186 15109 ft 376 kts 178°
2026-05-06 19:29 29.18829 -81.16816 14300 ft 372 kts 168°
2026-05-06 19:29 29.16382 -81.15929 13501 ft 367 kts 160°
2026-05-06 19:29 29.14019 -81.14907 12915 ft 360 kts 160°
2026-05-06 19:29 29.11686 -81.13909 12393 ft 356 kts 160°
2026-05-06 19:30 29.09424 -81.12945 12095 ft 336 kts 160°
2026-05-06 19:30 29.07257 -81.12022 11783 ft 320 kts 160°
2026-05-06 19:30 29.05193 -81.11145 11538 ft 316 kts 160°
2026-05-06 19:30 29.03125 -81.10289 11303 ft 314 kts 161°
2026-05-06 19:31 29.01069 -81.09496 11073 ft 311 kts 162°
2026-05-06 19:31 28.99013 -81.08729 10834 ft 310 kts 162°
2026-05-06 19:31 28.94809 -81.07848 10332 ft 308 kts 175°
2026-05-06 19:32 28.92669 -81.07611 9952 ft 307 kts 174°
2026-05-06 19:32 28.90563 -81.07389 9356 ft 303 kts 179°
2026-05-06 19:32 28.88488 -81.07613 8833 ft 297 kts 194°
2026-05-06 19:32 28.86574 -81.08431 8357 ft 291 kts 210°
2026-05-06 19:33 28.84949 -81.09668 8206 ft 271 kts 217°
2026-05-06 19:33 28.83455 -81.10857 8066 ft 253 kts 216°
2026-05-06 19:33 28.82012 -81.11997 7583 ft 255 kts 215°
2026-05-06 19:33 28.80574 -81.13133 7294 ft 246 kts 215°
2026-05-06 19:34 28.79180 -81.14236 7161 ft 243 kts 215°
2026-05-06 19:34 28.77795 -81.15333 7059 ft 241 kts 216°
2026-05-06 19:34 28.76505 -81.16531 6790 ft 239 kts 223°
2026-05-06 19:34 28.75272 -81.17789 6512 ft 236 kts 223°
2026-05-06 19:35 28.74049 -81.19026 6064 ft 234 kts 222°
2026-05-06 19:35 28.72834 -81.20250 5626 ft 232 kts 221°
2026-05-06 19:35 28.71634 -81.21459 5215 ft 228 kts 220°
2026-05-06 19:35 28.70449 -81.22654 4839 ft 227 kts 221°
2026-05-06 19:36 28.69271 -81.23842 4571 ft 225 kts 221°
2026-05-06 19:36 28.68103 -81.25022 4304 ft 223 kts 221°
2026-05-06 19:36 28.66943 -81.26191 4063 ft 221 kts 220°
2026-05-06 19:36 28.65812 -81.27327 3987 ft 215 kts 218°
2026-05-06 19:37 28.64545 -81.28193 3848 ft 212 kts 198°
2026-05-06 19:37 28.63099 -81.28456 3633 ft 210 kts 179°
2026-05-06 19:37 28.61643 -81.28440 3370 ft 209 kts 179°
2026-05-06 19:37 28.60189 -81.28421 3101 ft 208 kts 179°
2026-05-06 19:38 28.58741 -81.28405 2835 ft 208 kts 179°
2026-05-06 19:38 28.57294 -81.28391 2568 ft 208 kts 179°
2026-05-06 19:38 28.55858 -81.28376 2289 ft 203 kts 179°
2026-05-06 19:38 28.54461 -81.28361 2061 ft 196 kts 179°
2026-05-06 19:39 28.53135 -81.28348 1795 ft 192 kts 179°
2026-05-06 19:39 28.51829 -81.28334 1543 ft 182 kts 180°
2026-05-06 19:39 28.50605 -81.28322 1343 ft 167 kts 179°
2026-05-06 19:39 28.49456 -81.28310 1123 ft 164 kts 179°
2026-05-06 19:40 28.48321 -81.28299 913 ft 163 kts 178°
2026-05-06 19:40 28.47241 -81.28288 695 ft 150 kts 178°
2026-05-06 19:40 28.46221 -81.28267 491 ft 145 kts 176°
2026-05-06 19:40 28.45220 -81.28262 284 ft 144 kts 178°
2026-05-06 19:41 28.44212 -81.28258 112 ft 144 kts 176°
2026-05-06 19:41 28.43349 -81.28245 96 ft 85 kts 180°
2026-05-06 19:41 28.42896 -81.28242 99 ft 45 kts 179°
2026-05-06 19:41 28.42680 -81.28241 99 ft 25 kts 185°
2026-05-06 19:42 28.42560 -81.28290 98 ft 16 kts 215°
2026-05-06 19:42 28.42503 -81.28425 95 ft 21 kts 251°
2026-05-06 19:42 28.42450 -81.28590 98 ft 22 kts 249°
2026-05-06 19:42 28.42393 -81.28764 103 ft 23 kts 248°
2026-05-06 19:43 28.42332 -81.28954 103 ft 23 kts 250°
2026-05-06 19:43 28.42288 -81.29158 94 ft 29 kts 265°
2026-05-06 19:43 28.42283 -81.29390 95 ft 29 kts 270°
2026-05-06 19:43 28.42281 -81.29616 94 ft 30 kts 269°
2026-05-06 19:44 28.42280 -81.29839 95 ft 28 kts 269°
2026-05-06 19:44 28.42280 -81.30048 94 ft 26 kts 271°
2026-05-06 19:44 28.42278 -81.30254 94 ft 24 kts 268°
2026-05-06 19:44 28.42270 -81.30450 96 ft 25 kts 265°
2026-05-06 19:45 28.42257 -81.30648 97 ft 25 kts 265°
2026-05-06 19:45 28.42243 -81.30853 96 ft 27 kts 266°
2026-05-06 19:45 28.42238 -81.31045 95 ft 25 kts 276°
2026-05-06 19:45 28.42266 -81.31239 95 ft 25 kts 276°
2026-05-06 19:46 28.42268 -81.31439 96 ft 25 kts 270°
2026-05-06 19:46 28.42267 -81.31632 98 ft 23 kts 269°
2026-05-06 19:46 28.42236 -81.31764 100 ft 12 kts 194°
2026-05-06 19:46 28.42137 -81.31786 99 ft 19 kts 187°
2026-05-06 19:47 28.41975 -81.31793 99 ft 26 kts 178°
2026-05-06 19:47 28.41796 -81.31792 101 ft 23 kts 179°
2026-05-06 19:47 28.41685 -81.31754 99 ft 14 kts 125°
2026-05-06 19:47 28.41647 -81.31648 97 ft 17 kts 112°
2026-05-06 19:48 28.41566 -81.31551 95 ft 18 kts 168°
2026-05-06 19:48 28.41488 -81.31503 96 ft 9 kts 96°
2026-05-06 19:48 28.41486 -81.31468 94 ft 4 kts 94°
2026-05-06 19:48 28.41486 -81.31459 94 ft 0 kts 94°